Preview of NWS' New Version of Forecast
This preview is not operational and should not be used for support decisions.

Terminal Aerodrome Forecast (TAF)

Issued by National Weather Service (NWS)

                            
000
FTUS46 KMFR 222323
TAFRBG
TAF
KRBG 222323Z 2300/2324 36011G18KT P6SM SKC
     FM230300 VRB03KT P6SM SKC
     FM232300 35008KT P6SM SKC=